Date String (YYYY-MM-DD hh:mm:ss) UTC,Instrument flags,absolute air pressure of the measurement (hPa),sample flow rate (lpm),inlet stack bypass flow (lpm),air temperature of the measurement (°C),ambient temperature measured by the external sensor (°C),aerosol sample conditioner tube jacket temperature (°C),OPC LED temperature (°C),internal box temperature (°C),relative humidity of the measurement (%),span deviation,mass concentration of particles derived from Lorenz-Mie calculation of OPC scattering (μg/m³),mass concentration of particles derived from Lorenz-Mie calculation of OPC scattering (μg/m³),mass concentration of particles derived from Lorenz-Mie calculation of OPC scattering (μg/m³)
DateTimeUTC,F1_M11,P_M11,Q1_M11,Q2_M11,T1_M11,T2_M11,T3_M11,T4_M11,T5_M11,U1_M11,ZSPAN_M11,X0_M11,X2_M11,X1_M11
2023-09-24 07:00:00,SystemResetWarning,0831.7,5.00,000.00,028.9,027.4,000.0,037.2,030.4,11.4,0000.8,0013.00,0004.16,0003.32
2023-09-24 07:01:00,SystemResetWarning,0831.7,5.00,000.00,028.9,027.4,000.0,037.2,030.5,11.4,0001.0,0014.11,0004.11,0003.30
2023-09-24 07:02:00,SystemResetWarning,0831.7,4.99,000.00,028.9,027.4,000.0,037.2,030.4,11.4,0000.0,0013.65,0004.07,0003.29
2023-09-24 07:03:00,SystemResetWarning,0831.7,5.00,000.00,028.9,027.4,000.0,037.2,030.4,11.4,0000.0,0012.98,0004.04,0003.29
2023-09-24 07:04:00,SystemResetWarning,0831.7,5.00,000.00,028.9,027.4,000.0,037.2,030.4,11.4,0000.0,0012.52,0004.03,0003.28
2023-09-24 07:05:00,SystemResetWarning,0831.6,5.00,000.00,028.9,027.4,000.0,037.2,030.4,11.4,0000.0,0012.27,0004.01,0003.28
2023-09-24 07:06:00,SystemResetWarning,0831.6,5.01,000.00,028.9,027.4,000.0,037.2,030.4,11.4,0000.0,0012.30,0003.96,0003.27
2023-09-24 07:07:00,SystemResetWarning,0831.6,5.01,000.00,028.8,027.4,000.0,037.2,030.4,11.4,0000.0,0011.90,0003.96,0003.26
2023-09-24 07:08:00,SystemResetWarning,0831.6,4.99,000.00,028.8,027.4,000.0,037.2,030.3,11.4,0000.0,0011.60,0003.95,0003.25
2023-09-24 07:09:00,SystemResetWarning,0831.6,4.99,000.00,028.8,027.4,000.0,037.2,030.3,11.4,0000.0,0011.12,0003.91,0003.24
2023-09-24 07:10:00,SystemResetWarning,0831.6,5.00,000.00,028.8,027.4,000.0,037.3,030.3,11.5,0000.0,0011.20,0003.88,0003.23
2023-09-24 07:11:00,SystemResetWarning,0831.6,5.01,000.00,028.8,027.4,000.0,037.3,030.3,11.5,0000.0,0011.00,0003.85,0003.22
2023-09-24 07:12:00,SystemResetWarning,0831.7,5.00,000.00,028.8,027.3,000.0,037.3,030.3,11.5,0000.0,0009.94,0003.85,0003.21
2023-09-24 07:13:00,SystemResetWarning,0831.7,5.00,000.00,028.8,027.3,000.0,037.3,030.2,11.6,0000.0,0009.91,0003.86,0003.20
2023-09-24 07:14:00,SystemResetWarning,0831.7,5.00,000.00,028.8,027.3,000.0,037.3,030.3,11.6,0000.0,0009.95,0003.83,0003.18
2023-09-24 07:15:00,SystemResetWarning,0831.7,5.00,000.00,028.8,027.3,000.0,037.3,030.2,11.6,0000.0,0010.25,0003.82,0003.17
2023-09-24 07:16:00,SystemResetWarning,0831.7,5.00,000.00,028.8,027.3,000.0,037.3,030.2,11.7,0000.0,0010.31,0003.80,0003.16
2023-09-24 07:17:00,SystemResetWarning,0831.7,5.00,000.00,028.8,027.3,000.0,037.3,030.3,11.7,0000.0,0010.54,0003.80,0003.15
2023-09-24 07:18:00,SystemResetWarning,0831.7,5.00,000.00,028.8,027.3,000.0,037.3,030.3,11.7,0000.0,0011.13,0003.77,0003.14
2023-09-24 07:19:00,SystemResetWarning,0831.8,5.00,000.00,028.8,027.3,000.0,037.2,030.3,11.8,0000.0,0010.86,0003.80,0003.12
2023-09-24 07:20:00,SystemResetWarning,0832.2,5.01,000.00,028.8,027.4,000.0,037.2,030.3,11.7,0000.0,0011.33,0003.84,0003.12
2023-09-24 07:21:00,SystemResetWarning,0832.1,5.01,000.00,028.8,027.4,000.0,037.2,030.3,11.6,0000.0,0011.31,0003.89,0003.11
2023-09-24 07:22:00,SystemResetWarning,0832.3,5.00,000.00,028.8,027.4,000.0,037.2,030.3,11.7,0000.0,0010.92,0003.86,0003.10
2023-09-24 07:23:00,SystemResetWarning,0832.2,5.00,000.00,028.8,027.4,000.0,037.2,030.4,11.7,0000.0,0010.26,0003.86,0003.09
2023-09-24 07:24:00,SystemResetWarning,0831.8,5.00,000.00,028.8,027.4,000.0,037.2,030.4,11.6,0000.0,0010.47,0003.84,0003.10
2023-09-24 07:25:00,SystemResetWarning,0832.3,4.99,000.00,028.8,027.4,000.0,037.3,030.4,11.6,0000.0,0010.47,0003.85,0003.09
2023-09-24 07:26:00,SystemResetWarning,0832.1,4.99,000.00,028.8,027.4,000.0,037.2,030.4,11.6,0000.0,0010.15,0003.83,0003.08
2023-09-24 07:27:00,SystemResetWarning,0831.9,5.02,000.00,028.8,027.4,000.0,037.3,030.4,11.6,0000.0,0011.05,0003.85,0003.07
2023-09-24 07:28:00,SystemResetWarning,0831.8,5.00,000.00,028.8,027.4,000.0,037.3,030.4,11.6,0000.0,0010.52,0003.83,0003.07
2023-09-24 07:29:00,SystemResetWarning,0831.7,5.00,000.00,028.8,027.4,000.0,037.3,030.4,11.6,0000.0,0010.59,0003.85,0003.09
2023-09-24 07:30:00,SystemResetWarning,0831.7,5.00,000.00,028.9,027.4,000.0,037.3,030.4,11.5,0000.0,0011.86,0003.83,0003.09
2023-09-24 07:31:00,SystemResetWarning,0831.7,5.00,000.00,028.9,027.4,000.0,037.3,030.4,11.5,0000.0,0011.61,0003.80,0003.09
2023-09-24 07:32:00,SystemResetWarning,0831.7,4.99,000.00,028.9,027.5,000.0,037.3,030.4,11.5,0000.0,0011.57,0003.77,0003.07
2023-09-24 07:33:00,SystemResetWarning,0831.7,5.00,000.00,028.9,027.5,000.0,037.3,030.4,11.5,0000.0,0011.70,0003.73,0003.05
2023-09-24 07:34:00,SystemResetWarning,0831.7,5.00,000.00,028.9,027.4,000.0,037.3,030.4,11.5,0000.0,0011.84,0003.73,0003.04
2023-09-24 07:35:00,SystemResetWarning,0831.7,5.00,000.00,028.9,027.4,000.0,037.3,030.4,11.5,0000.0,0011.86,0003.68,0003.01
2023-09-24 07:36:00,SystemResetWarning,0831.7,5.01,000.00,028.9,027.4,000.0,037.3,030.4,11.6,0000.0,0011.68,0003.63,0002.97
2023-09-24 07:37:00,SystemResetWarning,0831.8,5.00,000.00,028.9,027.4,000.0,037.3,030.4,11.3,0000.0,0011.77,0003.61,0002.96
2023-09-24 07:38:00,SystemResetWarning,0831.7,5.00,000.00,028.9,027.4,000.0,037.3,030.4,11.2,0000.0,0011.43,0003.57,0002.93
2023-09-24 07:39:00,SystemResetWarning,0831.7,5.00,000.00,028.9,027.4,000.0,037.3,030.4,11.2,0000.0,0010.82,0003.55,0002.90
2023-09-24 07:40:00,SystemResetWarning,0831.7,5.00,000.00,028.9,027.4,000.0,037.3,030.4,11.2,0000.0,0010.44,0003.53,0002.86
2023-09-24 07:41:00,SystemResetWarning,0831.7,4.99,000.00,028.9,027.4,000.0,037.3,030.4,11.2,0000.0,0008.92,0003.54,0002.83
2023-09-24 07:42:00,SystemResetWarning,0831.7,5.00,000.00,028.9,027.4,000.0,037.3,030.4,11.2,0000.0,0008.73,0003.55,0002.82
2023-09-24 07:43:00,SystemResetWarning,0831.7,5.00,000.00,028.9,027.4,000.0,037.3,030.4,11.2,0000.0,0008.72,0003.52,0002.82
2023-09-24 07:44:00,SystemResetWarning,0831.7,5.00,000.00,028.9,027.4,000.0,037.3,030.4,11.2,0000.0,0008.50,0003.52,0002.81
2023-09-24 07:45:00,SystemResetWarning,0831.7,5.00,000.00,028.9,027.4,000.0,037.3,030.4,11.3,0000.0,0008.28,0003.51,0002.80
2023-09-24 07:46:00,SystemResetWarning,0831.7,5.00,000.00,028.9,027.4,000.0,037.3,030.4,11.2,0000.0,0008.94,0003.55,0002.79
2023-09-24 07:47:00,SystemResetWarning,0831.7,5.01,000.00,028.9,027.4,000.0,037.3,030.4,11.2,0000.0,0009.60,0003.61,0002.81
2023-09-24 07:48:00,SystemResetWarning,0831.7,5.01,000.00,028.9,027.4,000.0,037.3,030.4,11.1,0000.0,0010.57,0003.59,0002.81
2023-09-24 07:49:00,SystemResetWarning,0831.7,5.00,000.00,028.9,027.4,000.0,037.3,030.4,11.0,0000.0,0010.34,0003.60,0002.82
2023-09-24 07:50:00,SystemResetWarning,0831.7,4.99,000.00,028.9,027.4,000.0,037.3,030.4,10.9,0000.0,0010.48,0003.60,0002.82
2023-09-24 07:51:00,SystemResetWarning,0831.7,4.99,000.00,028.9,027.4,000.0,037.3,030.4,10.9,0000.0,0010.68,0003.62,0002.81
2023-09-24 07:52:00,SystemResetWarning,0831.7,5.00,000.00,028.9,027.4,000.0,037.3,030.4,10.9,0000.0,0010.83,0003.61,0002.80
2023-09-24 07:53:00,SystemResetWarning,0831.7,5.01,000.00,028.9,027.4,000.0,037.3,030.3,10.9,0000.0,0011.68,0003.62,0002.79
2023-09-24 07:54:00,SystemResetWarning,0831.6,5.00,000.00,028.9,027.4,000.0,037.3,030.4,10.9,0000.0,0011.24,0003.56,0002.76
2023-09-24 07:55:00,SystemResetWarning,0831.6,5.00,000.00,028.9,027.4,000.0,037.3,030.4,10.9,0000.0,0011.09,0003.56,0002.77
2023-09-24 07:56:00,SystemResetWarning,0831.6,5.00,000.00,028.9,027.4,000.0,037.3,030.4,11.0,0000.0,0011.27,0003.60,0002.79
2023-09-24 07:57:00,SystemResetWarning,0831.6,5.00,000.00,028.9,027.4,000.0,037.3,030.4,11.1,0000.0,0010.57,0003.59,0002.76
2023-09-24 07:58:00,SystemResetWarning,0831.6,4.99,000.00,028.9,027.4,000.0,037.3,030.4,11.1,0000.0,0009.90,0003.56,0002.75
2023-09-24 07:59:00,SystemResetWarning,0831.5,4.99,000.00,028.9,027.4,000.0,037.3,030.4,11.1,0000.0,0009.24,0003.56,0002.76
